When you browse on this site, cookies collect data to enhance your experience and personalize the content and advertising you see.
Visit our Privacy Policy to learn more. By continuing to use the site, you agree to this use of cookies and data.
  • In Norway
  • List of Countries
  • For 7 days
  • Water Temperature
  • Satellite Maps
  • Weather Map
  • Weather Widgets
  • user-avatar
    Login

    Hourly Weather Kerns

    Today, 11 December, Tuesday

    Time Temperature Precipitation Wind Pressure Humidity
    00:00 +27°C° 0.5 mm 2 mps 755 mmHg 97%
    01:00 +27°C° 0.5 mm 2 mps 755 mmHg 97%
    02:00 +27°C° 0.5 mm 2 mps 755 mmHg 97%
    03:00 +27°C° 0.5 mm 2 mps 755 mmHg 97%
    04:00 +26°C° 0 mm 2 mps 755 mmHg 97%
    05:00 +27°C° 0.5 mm 2 mps 755 mmHg 96%
    06:00 +27°C° 0.5 mm 2 mps 756 mmHg 95%
    07:00 +28°C° 0.5 mm 2 mps 756 mmHg 94%
    08:00 +29°C° 0.4 mm 2 mps 756 mmHg 89%
    09:00 +30°C° 0.4 mm 2 mps 756 mmHg 83%
    10:00 +31°C° 0.4 mm 3 mps 756 mmHg 78%
    11:00 +33°C° 0.1 mm 3 mps 756 mmHg 76%
    12:00 +34°C° 0.1 mm 3 mps 756 mmHg 73%
    13:00 +34°C° 0.1 mm 3 mps 755 mmHg 71%
    14:00 +34°C° 0.1 mm 3 mps 755 mmHg 72%
    15:00 +34°C° 0.1 mm 3 mps 755 mmHg 72%
    16:00 +33°C° 0.1 mm 3 mps 754 mmHg 73%
    17:00 +31°C° 0 mm 3 mps 755 mmHg 79%
    18:00 +30°C° 0 mm 2 mps 755 mmHg 85%
    19:00 +28°C° 0 mm 2 mps 755 mmHg 91%
    20:00 +28°C° 0 mm 2 mps 756 mmHg 93%
    21:00 +28°C° 0 mm 1 mps 756 mmHg 94%
    22:00 +27°C° 0 mm 1 mps 757 mmHg 96%
    23:00 +27°C° 0 mm 1 mps 756 mmHg 96%

    Tomorrow, 12 December, Wednesday

    Time Temperature Precipitation Wind Pressure Humidity
    00:00 +27°C° 0 mm 1 mps 756 mmHg 96%
    01:00 +27°C° 0 mm 1 mps 755 mmHg 96%
    02:00 +27°C° 0 mm 1 mps 755 mmHg 96%
    03:00 +27°C° 0 mm 1 mps 755 mmHg 96%
    04:00 +27°C° 0 mm 1 mps 755 mmHg 96%
    05:00 +27°C° 0 mm 2 mps 755 mmHg 94%
    06:00 +28°C° 0 mm 2 mps 756 mmHg 92%
    07:00 +28°C° 0 mm 2 mps 756 mmHg 90%
    08:00 +30°C° 0 mm 2 mps 756 mmHg 83%
    09:00 +32°C° 0 mm 2 mps 757 mmHg 77%
    10:00 +34°C° 0 mm 2 mps 757 mmHg 70%
    11:00 +35°C° 0.1 mm 2 mps 756 mmHg 69%
    12:00 +35°C° 0.1 mm 2 mps 756 mmHg 69%
    13:00 +35°C° 0.1 mm 2 mps 755 mmHg 69%
    14:00 +35°C° 0.1 mm 2 mps 755 mmHg 70%
    15:00 +35°C° 0.1 mm 2 mps 754 mmHg 71%
    16:00 +34°C° 0.1 mm 2 mps 754 mmHg 72%
    17:00 +32°C° 0.1 mm 2 mps 754 mmHg 79%
    18:00 +31°C° 0.1 mm 2 mps 754 mmHg 85%
    19:00 +29°C° 0.1 mm 1 mps 755 mmHg 91%
    20:00 +29°C° 0.3 mm 1 mps 755 mmHg 93%
    21:00 +28°C° 0.3 mm 1 mps 756 mmHg 95%
    22:00 +28°C° 0.3 mm 1 mps 756 mmHg 96%
    23:00 +28°C° 0.1 mm 1 mps 756 mmHg 96%

    Day after tomorrow, 13 December, Thursday

    Time Temperature Precipitation Wind Pressure Humidity
    00:00 +28°C° 0.1 mm 1 mps 755 mmHg 97%
    01:00 +28°C° 0.1 mm 1 mps 755 mmHg 97%
    02:00 +27°C° 0 mm 1 mps 754 mmHg 97%
    03:00 +27°C° 0 mm 1 mps 754 mmHg 97%
    04:00 +27°C° 0 mm 1 mps 754 mmHg 97%
    05:00 +28°C° 0 mm 1 mps 754 mmHg 95%
    06:00 +26°C° 0 mm 0 mps 755 mmHg 93%
    07:00 +27°C° 0 mm 0 mps 755 mmHg 90%
    08:00 +30°C° 0.2 mm 1 mps 756 mmHg 87%
    09:00 +31°C° 0.2 mm 1 mps 756 mmHg 83%
    10:00 +32°C° 0.2 mm 2 mps 756 mmHg 79%
    11:00 +32°C° 1.4 mm 2 mps 756 mmHg 80%
    12:00 +32°C° 1.4 mm 2 mps 755 mmHg 80%
    13:00 +32°C° 1.4 mm 2 mps 755 mmHg 81%
    14:00 +32°C° 1.7 mm 2 mps 754 mmHg 81%
    15:00 +32°C° 1.7 mm 2 mps 754 mmHg 81%
    16:00 +32°C° 1.7 mm 1 mps 754 mmHg 81%
    17:00 +30°C° 0.7 mm 2 mps 754 mmHg 85%
    18:00 +29°C° 0.7 mm 2 mps 754 mmHg 90%
    19:00 +28°C° 0.7 mm 2 mps 755 mmHg 94%
    20:00 +28°C° 0 mm 2 mps 754 mmHg 94%
    21:00 +28°C° 0 mm 3 mps 754 mmHg 95%
    22:00 +28°C° 0 mm 3 mps 754 mmHg 95%
    23:00 +27°C° 0 mm 3 mps 754 mmHg 94%

    14 December, Friday

    Time Temperature Precipitation Wind Pressure Humidity
    00:00 +27°C° 0 mm 2 mps 753 mmHg 94%
    01:00 +27°C° 0 mm 2 mps 753 mmHg 94%
    02:00 +27°C° 0 mm 2 mps 753 mmHg 94%
    03:00 +27°C° 0 mm 2 mps 753 mmHg 93%
    04:00 +27°C° 0 mm 2 mps 752 mmHg 93%
    05:00 +27°C° 0 mm 2 mps 753 mmHg 92%
    06:00 +28°C° 0 mm 2 mps 753 mmHg 91%
    07:00 +28°C° 0 mm 2 mps 754 mmHg 89%
    08:00 +30°C° 0.1 mm 2 mps 754 mmHg 82%
    09:00 +31°C° 0.1 mm 3 mps 754 mmHg 75%
    10:00 +34°C° 0.1 mm 4 mps 754 mmHg 68%
    11:00 +34°C° 0.3 mm 4 mps 753 mmHg 70%
    12:00 +34°C° 0.3 mm 4 mps 753 mmHg 71%
    13:00 +34°C° 0.3 mm 5 mps 752 mmHg 73%
    14:00 +34°C° 0.7 mm 4 mps 752 mmHg 77%
    15:00 +33°C° 0.7 mm 4 mps 751 mmHg 81%
    16:00 +32°C° 0.7 mm 4 mps 751 mmHg 85%
    17:00 +30°C° 0.3 mm 4 mps 752 mmHg 88%
    18:00 +30°C° 0.3 mm 4 mps 752 mmHg 92%
    19:00 +29°C° 0.3 mm 4 mps 753 mmHg 95%
    20:00 +29°C° 0.5 mm 4 mps 753 mmHg 95%
    21:00 +29°C° 0.5 mm 3 mps 754 mmHg 95%
    22:00 +28°C° 0.5 mm 3 mps 754 mmHg 96%
    23:00 +28°C° 1.6 mm 4 mps 754 mmHg 96%

    15 December, Saturday

    Time Temperature Precipitation Wind Pressure Humidity
    00:00 +28°C° 1.6 mm 4 mps 753 mmHg 96%
    01:00 +28°C° 1.6 mm 4 mps 753 mmHg 97%
    02:00 +28°C° 0.9 mm 4 mps 752 mmHg 97%
    03:00 +28°C° 0.9 mm 5 mps 752 mmHg 97%
    04:00 +28°C° 0.9 mm 5 mps 751 mmHg 97%
    05:00 +28°C° 1.7 mm 5 mps 752 mmHg 96%
    06:00 +28°C° 1.7 mm 6 mps 752 mmHg 96%
    07:00 +28°C° 1.7 mm 6 mps 752 mmHg 96%
    08:00 +28°C° 1.2 mm 7 mps 752 mmHg 95%
    09:00 +28°C° 1.2 mm 7 mps 752 mmHg 95%
    10:00 +29°C° 1.2 mm 8 mps 751 mmHg 95%
    11:00 +29°C° 1 mm 8 mps 751 mmHg 95%
    12:00 +29°C° 1 mm 9 mps 750 mmHg 94%
    13:00 +29°C° 1 mm 9 mps 749 mmHg 93%
    14:00 +29°C° 0.7 mm 9 mps 749 mmHg 92%
    15:00 +29°C° 0.7 mm 8 mps 749 mmHg 91%
    16:00 +29°C° 0.7 mm 8 mps 748 mmHg 90%
    17:00 +29°C° 0.4 mm 8 mps 749 mmHg 89%
    18:00 +29°C° 0.4 mm 7 mps 749 mmHg 89%
    19:00 +28°C° 0.4 mm 7 mps 750 mmHg 88%
    20:00 +28°C° 0 mm 7 mps 750 mmHg 88%
    21:00 +28°C° 0 mm 6 mps 751 mmHg 88%
    22:00 +28°C° 0 mm 6 mps 751 mmHg 89%
    23:00 +28°C° 0 mm 6 mps 751 mmHg 88%

    16 December, Sunday

    Time Temperature Precipitation Wind Pressure Humidity
    00:00 +28°C° 0 mm 5 mps 751 mmHg 87%
    01:00 +28°C° 0 mm 5 mps 751 mmHg 87%
    02:00 +28°C° 0 mm 5 mps 752 mmHg 86%
    03:00 +27°C° 0 mm 5 mps 752 mmHg 85%
    04:00 +27°C° 0 mm 5 mps 752 mmHg 84%
    05:00 +27°C° 0 mm 4 mps 753 mmHg 83%
    06:00 +27°C° 0 mm 4 mps 753 mmHg 81%
    07:00 +27°C° 0 mm 4 mps 754 mmHg 80%
    08:00 +29°C° 0 mm 4 mps 754 mmHg 70%
    09:00 +30°C° 0 mm 4 mps 754 mmHg 61%
    10:00 +33°C° 0 mm 4 mps 754 mmHg 51%
    11:00 +34°C° 0 mm 4 mps 754 mmHg 46%
    12:00 +36°C° 0 mm 4 mps 753 mmHg 41%
    13:00 +37°C° 0 mm 3 mps 753 mmHg 37%
    14:00 +37°C° 0 mm 3 mps 752 mmHg 39%
    15:00 +37°C° 0 mm 3 mps 752 mmHg 42%
    16:00 +36°C° 0 mm 3 mps 752 mmHg 45%
    17:00 +34°C° 0 mm 3 mps 752 mmHg 51%
    18:00 +31°C° 0 mm 3 mps 753 mmHg 57%
    19:00 +29°C° 0 mm 3 mps 753 mmHg 63%
    20:00 +29°C° 0 mm 3 mps 753 mmHg 64%
    21:00 +28°C° 0 mm 3 mps 754 mmHg 64%
    22:00 +28°C° 0 mm 3 mps 754 mmHg 64%
    23:00 +27°C° 0 mm 3 mps 754 mmHg 67%
    Show more